DW8722 Weather Reports


Display with metric or nautical units.
time (UTC)temp
F
wind
direction
speed
MPH
gust
MPH
rain 1hr
in
rain 24hr
in
rain mn
in
humidity
%
barometer
mb
20260901110319 75 146 0.0 0.0 0.00 0.00 0.00 78 1015.3
20260901105342 75 146 0.0 0.0 0.00 0.00 0.00 77 1015.3
20260901103304 76 146 0.0 0.0 0.00 0.00 0.00 76 1015.2
20260901102313 77 146 0.0 3.0 0.00 0.00 0.00 76 1015.2
20260901101330 77 150 0.0 3.0 0.00 0.00 0.00 76 1015.2
20260901100259 77 140 0.0 3.0 0.00 0.00 0.00 76 1015.1
20260901095249 76 144 1.0 3.0 0.00 0.00 0.00 76 1015.3
20260901094309 76 144 1.0 3.0 0.00 0.00 0.00 77 1015.3
20260901093246 76 128 0.0 2.0 0.00 0.00 0.00 77 1015.3
20260901092305 75 112 0.0 2.0 0.00 0.00 0.00 76 1015.3
20260901091305 75 101 0.0 0.0 0.00 0.00 0.00 76 1015.4
20260901085137 76 101 0.0 0.0 0.00 0.00 0.00 75 1015.3
20260901084141 76 102 0.0 0.0 0.00 0.00 0.00 75 1015.2
20260901083114 76 103 0.0 0.0 0.00 0.00 0.00 74 1015.2
20260901082116 76 104 0.0 0.0 0.00 0.00 0.00 73 1015.2
20260901081116 76 104 0.0 0.0 0.00 0.00 0.00 73 1015.0
20260901080118 76 105 0.0 0.0 0.00 0.00 0.00 72 1015.0
20260901075045 76 101 0.0 1.0 0.00 0.00 0.00 73 1015.1
20260901074105 77 101 0.0 0.0 0.00 0.00 0.00 71 1015.1
20260901073115 77 104 0.0 0.0 0.00 0.00 0.00 71 1014.9
20260901072109 77 106 0.0 0.0 0.00 0.00 0.00 70 1014.9
20260901071128 78 107 0.0 0.0 0.00 0.00 0.00 69 1014.9
20260901070121 78 107 0.0 0.0 0.00 0.00 0.00 69 1014.9
20260901065118 79 107 0.0 0.0 0.00 0.00 0.00 67 1014.9
20260901064101 79 107 0.0 0.0 0.00 0.00 0.00 65 1014.9
20260901063040 80 108 0.0 0.0 0.00 0.00 0.00 64 1014.9
20260901062025 81 108 0.0 0.0 0.00 0.00 0.00 63 1014.8
20260901061012 82 108 0.0 2.0 0.00 0.00 0.00 62 1014.7
20260901054919 82 119 1.0 4.0 0.00 0.00 0.00 62 1014.5
20260901053846 82 143 3.0 7.0 0.00 0.00 0.00 62 1014.4
20260901052831 81 123 2.0 7.0 0.00 0.00 0.00 62 1014.5
20260901051759 81 118 3.0 7.0 0.00 0.00 0.00 62 1014.5
20260901050737 80 121 2.0 7.0 0.00 0.00 0.00 63 1014.3
20260901045705 79 110 0.0 3.0 0.00 0.00 0.00 65 1014.2
20260901044719 79 115 0.0 2.0 0.00 0.00 0.00 66 1014.1
20260901043712 79 83 0.0 0.0 0.00 0.00 0.00 65 1014.1
20260901041545 80 83 0.0 0.0 0.00 0.00 0.00 63 1014.1
20260901040534 80 83 0.0 0.0 0.00 0.00 0.00 62 1014.1
20260901035536 81 83 0.0 0.0 0.00 0.00 0.00 61 1014.0
20260901034509 81 83 0.0 0.0 0.00 0.00 0.00 61 1014.1
20260901033523 82 83 0.0 0.0 0.00 0.00 0.00 59 1014.0
20260901032509 82 84 0.0 0.0 0.00 0.00 0.00 58 1013.9
20260901031438 83 84 0.0 0.0 0.00 0.00 0.00 56 1013.8
20260901030423 83 84 0.0 0.0 0.00 0.00 0.00 57 1013.8
20260901025418 84 84 0.0 0.0 0.00 0.00 0.00 57 1013.5
20260901024418 83 102 0.0 2.0 0.00 0.00 0.00 56 1013.4
20260901023354 84 104 0.0 1.0 0.00 0.00 0.00 55 1013.3
20260901022352 84 104 0.0 0.0 0.00 0.00 0.00 54 1013.1
20260901021320 85 107 0.0 0.0 0.00 0.00 0.00 51 1013.1
20260901015156 87 146 0.0 0.0 0.00 0.00 0.00 48 1012.8
20260901014155 88 146 0.0 0.0 0.00 0.00 0.00 48 1012.7
20260901013204 89 146 0.0 0.0 0.00 0.00 0.00 46 1012.8
20260901011032 92 173 0.0 0.0 0.00 0.00 0.00 42 1012.6
20260901010032 94 173 0.0 0.0 0.00 0.00 0.00 40 1012.7
20260901003849 96 184 2.0 8.0 0.00 0.00 0.00 37 1012.6
20260901001747 97 154 4.0 10.0 0.00 0.00 0.00 35 1012.5
20260901000800 98 150 3.0 10.0 0.00 0.00 0.00 35 1012.5
20260831235819 98 128 3.0 6.0 0.00 0.00 0.00 33 1012.4
20260831234810 99 171 4.0 9.0 0.00 0.00 0.00 33 1012.5
20260831233802 100 182 5.0 10.0 0.00 0.00 0.00 32 1012.6
20260831232738 100 182 5.0 10.0 0.00 0.00 0.00 31 1012.5
20260831230603 100 159 6.0 11.0 0.00 0.00 0.00 31 1012.6
20260831224401 101 167 3.0 8.0 0.00 0.00 0.00 31 1012.6
20260831223347 101 120 4.0 10.0 0.00 0.00 0.00 31 1012.7
20260831222356 102 121 4.0 13.0 0.00 0.00 0.00 30 1012.7
20260831221402 101 155 5.0 13.0 0.00 0.00 0.00 31 1012.7
20260831220343 102 170 6.0 13.0 0.00 0.00 0.00 30 1012.8
20260831215401 101 161 2.0 11.0 0.00 0.00 0.00 31 1012.8
20260831214408 100 204 3.0 8.0 0.00 0.00 0.00 32 1013.0
20260831213344 98 195 3.0 11.0 0.00 0.00 0.00 32 1013.1
20260831211243 99 144 4.0 11.0 0.00 0.00 0.00 31 1013.3
20260831210250 100 130 0.0 2.0 0.00 0.00 0.00 32 1013.4
20260831205258 101 136 2.0 14.0 0.00 0.00 0.00 31 1013.5
20260831204253 101 157 6.0 14.0 0.00 0.00 0.00 31 1013.7
20260831203315 101 187 7.0 13.0 0.00 0.00 0.00 32 1013.9
20260831202326 101 193 6.0 17.0 0.00 0.00 0.00 31 1014.0
20260831200143 100 144 4.0 10.0 0.00 0.00 0.00 34 1014.2
20260831195145 99 144 3.0 13.0 0.00 0.00 0.00 32 1014.4
20260831194122 99 123 7.0 13.0 0.00 0.00 0.00 29 1014.6
20260831193143 99 153 1.0 10.0 0.00 0.00 0.00 35 1014.7
20260831192132 100 233 3.0 11.0 0.00 0.00 0.00 34 1014.8
20260831191107 99 188 3.0 12.0 0.00 0.00 0.00 35 1014.8
20260831190042 100 234 6.0 13.0 0.00 0.00 0.00 36 1014.9
20260831185050 100 170 3.0 19.0 0.00 0.00 0.00 37 1014.9
20260831184030 99 155 6.0 19.0 0.00 0.00 0.00 36 1015.2
20260831181949 98 155 4.0 15.0 0.00 0.00 0.00 38 1015.5
20260831181013 98 181 5.0 14.0 0.00 0.00 0.00 38 1015.6
20260831175958 98 234 4.0 11.0 0.00 0.00 0.00 40 1015.8
20260831175007 98 182 4.0 14.0 0.00 0.00 0.00 39 1015.9
20260831173939 97 214 7.0 17.0 0.00 0.00 0.00 41 1016.0
20260831172938 96 232 6.0 17.0 0.00 0.00 0.00 42 1016.2
20260831171948 96 178 6.0 17.0 0.00 0.00 0.00 43 1016.2
20260831170927 96 221 7.0 13.0 0.00 0.00 0.00 42 1016.4
20260831165922 95 201 5.0 11.0 0.00 0.00 0.00 44 1016.4
20260831164936 94 242 6.0 15.0 0.00 0.00 0.00 45 1016.4
20260831162820 94 219 5.0 12.0 0.00 0.00 0.00 46 1016.5
20260831161831 93 215 5.0 10.0 0.00 0.00 0.00 46 1016.6
20260831160831 92 186 6.0 12.0 0.00 0.00 0.00 46 1016.5
20260831155823 91 208 7.0 14.0 0.00 0.00 0.00 45 1016.6
20260831154816 91 202 6.0 14.0 0.00 0.00 0.00 46 1016.6
20260831153828 90 191 7.0 12.0 0.00 0.00 0.00 47 1016.5
20260831152823 89 231 3.0 10.0 0.00 0.00 0.00 52 1016.5
20260831150614 87 202 4.0 10.0 0.00 0.00 0.00 57 1016.4
20260831145543 87 173 4.0 9.0 0.00 0.00 0.00 59 1016.5
20260831144554 86 172 4.0 9.0 0.00 0.00 0.00 60 1016.4
20260831143557 85 221 4.0 9.0 0.00 0.00 0.00 62 1016.4
20260831142603 85 190 3.0 10.0 0.00 0.00 0.00 64 1016.4
20260831141607 84 205 5.0 10.0 0.00 0.00 0.00 66 1016.4
20260831135441 83 198 1.0 4.0 0.00 0.00 0.00 70 1016.5
20260831132116 78 127 0.0 1.0 0.00 0.00 0.00 77 1016.0
20260831131108 77 174 0.0 0.0 0.00 0.00 0.00 79 1015.9
20260831130034 75 134 0.0 0.0 0.00 0.00 0.00 80 1015.8
20260831125036 75 134 0.0 1.0 0.00 0.00 0.00 81 1015.7
20260831124023 74 147 0.0 0.0 0.00 0.00 0.00 82 1015.5
20260831123009 73 148 0.0 0.0 0.00 0.00 0.00 82 1015.4
20260831121947 73 148 0.0 0.0 0.00 0.00 0.00 81 1015.2
20260831121011 73 148 0.0 0.0 0.00 0.00 0.00 81 1015.0
20260831120006 73 148 0.0 0.0 0.00 0.00 0.00 80 1014.8
20260831114957 73 148 0.0 0.0 0.00 0.00 0.00 79 1014.7
20260831114023 73 148 0.0 0.0 0.00 0.00 0.00 78 1014.6
20260831113048 74 148 0.0 0.0 0.00 0.00 0.00 78 1014.6
20260831112020 74 148 0.0 0.0 0.00 0.00 0.00 76 1014.6
20260831111005 75 148 0.0 0.0 0.00 0.00 0.00 75 1014.4